Hourly Weather Goldyny

Today, 7 May, Friday

Time Temperature Precipitation Wind Pressure Humidity
00:00 +5°C° 0 mm 2 mps 704 mmHg 83%
01:00 +5°C° 0 mm 2 mps 704 mmHg 81%
02:00 +5°C° 0.1 mm 2 mps 704 mmHg 85%
03:00 +5°C° 0.1 mm 2 mps 703 mmHg 89%
04:00 +4°C° 0.1 mm 2 mps 703 mmHg 92%
05:00 +5°C° 0 mm 2 mps 703 mmHg 88%
06:00 +7°C° 0 mm 2 mps 703 mmHg 85%
07:00 +8°C° 0 mm 2 mps 703 mmHg 81%
08:00 +9°C° 0 mm 3 mps 703 mmHg 75%
09:00 +10°C° 0 mm 4 mps 703 mmHg 69%
10:00 +10°C° 0 mm 4 mps 703 mmHg 64%
11:00 +11°C° 0.2 mm 4 mps 703 mmHg 66%
12:00 +11°C° 0.2 mm 4 mps 704 mmHg 67%
13:00 +11°C° 0.2 mm 4 mps 704 mmHg 69%
14:00 +11°C° 0.3 mm 4 mps 704 mmHg 71%
15:00 +10°C° 0.3 mm 4 mps 704 mmHg 73%
16:00 +10°C° 0.3 mm 4 mps 704 mmHg 75%
17:00 +7°C° 0.4 mm 4 mps 705 mmHg 81%
18:00 +5°C° 0.4 mm 4 mps 706 mmHg 87%
19:00 +3°C° 0.4 mm 4 mps 707 mmHg 93%
20:00 +3°C° 0.1 mm 4 mps 707 mmHg 93%
21:00 +1°C° 0.1 mm 4 mps 708 mmHg 92%
22:00 0°C° 0.1 mm 4 mps 708 mmHg 91%
23:00 +1°C° 0 mm 3 mps 709 mmHg 90%

Tomorrow, 8 May, Saturday

Time Temperature Precipitation Wind Pressure Humidity
00:00 0°C° 0 mm 3 mps 709 mmHg 89%
01:00 0°C° 0 mm 3 mps 710 mmHg 89%
02:00 0°C° 0 mm 3 mps 710 mmHg 89%
03:00 0°C° 0 mm 3 mps 711 mmHg 90%
04:00 0°C° 0 mm 3 mps 711 mmHg 91%
05:00 +1°C° 0 mm 3 mps 712 mmHg 86%
06:00 +1°C° 0 mm 4 mps 712 mmHg 81%
07:00 +3°C° 0 mm 4 mps 713 mmHg 76%
08:00 +4°C° 0 mm 4 mps 713 mmHg 68%
09:00 +5°C° 0 mm 4 mps 713 mmHg 61%
10:00 +6°C° 0 mm 4 mps 713 mmHg 53%
11:00 +7°C° 0 mm 4 mps 713 mmHg 50%
12:00 +8°C° 0 mm 4 mps 713 mmHg 47%
13:00 +10°C° 0 mm 4 mps 713 mmHg 43%
14:00 +10°C° 0 mm 3 mps 713 mmHg 43%
15:00 +10°C° 0 mm 3 mps 713 mmHg 42%
16:00 +10°C° 0 mm 3 mps 713 mmHg 42%
17:00 +8°C° 0 mm 2 mps 713 mmHg 52%
18:00 +7°C° 0 mm 1 mps 713 mmHg 62%
19:00 +4°C° 0 mm 0 mps 713 mmHg 72%
20:00 +5°C° 0 mm 1 mps 714 mmHg 73%
21:00 +4°C° 0 mm 1 mps 714 mmHg 74%
22:00 +4°C° 0 mm 1 mps 714 mmHg 76%
23:00 +3°C° 0 mm 1 mps 714 mmHg 76%

Day after tomorrow, 9 May, Sunday

Time Temperature Precipitation Wind Pressure Humidity
00:00 +3°C° 0 mm 1 mps 714 mmHg 77%
01:00 +2°C° 0 mm 2 mps 715 mmHg 78%
02:00 +1°C° 0 mm 2 mps 715 mmHg 78%
03:00 +1°C° 0 mm 2 mps 714 mmHg 78%
04:00 +1°C° 0 mm 2 mps 714 mmHg 78%
05:00 +4°C° 0 mm 2 mps 714 mmHg 71%
06:00 +6°C° 0 mm 2 mps 715 mmHg 64%
07:00 +8°C° 0 mm 2 mps 715 mmHg 57%
08:00 +10°C° 0 mm 2 mps 714 mmHg 52%
09:00 +13°C° 0 mm 2 mps 714 mmHg 48%
10:00 +14°C° 0 mm 3 mps 714 mmHg 43%
11:00 +16°C° 0 mm 3 mps 714 mmHg 42%
12:00 +17°C° 0 mm 3 mps 714 mmHg 41%
13:00 +19°C° 0 mm 3 mps 714 mmHg 40%
14:00 +18°C° 0 mm 3 mps 714 mmHg 42%
15:00 +18°C° 0 mm 3 mps 713 mmHg 44%
16:00 +18°C° 0 mm 3 mps 713 mmHg 46%
17:00 +16°C° 0 mm 3 mps 713 mmHg 56%
18:00 +12°C° 0 mm 3 mps 713 mmHg 65%
19:00 +10°C° 0 mm 3 mps 713 mmHg 74%
20:00 +9°C° 0 mm 3 mps 713 mmHg 78%
21:00 +8°C° 0 mm 3 mps 713 mmHg 82%
22:00 +6°C° 0 mm 2 mps 713 mmHg 86%
23:00 +6°C° 0 mm 2 mps 713 mmHg 86%

10 May, Monday

Time Temperature Precipitation Wind Pressure Humidity
00:00 +6°C° 0 mm 2 mps 712 mmHg 85%
01:00 +5°C° 0 mm 2 mps 712 mmHg 85%
02:00 +5°C° 0 mm 2 mps 712 mmHg 83%
03:00 +5°C° 0 mm 2 mps 712 mmHg 81%
04:00 +5°C° 0 mm 2 mps 712 mmHg 80%
05:00 +7°C° 0 mm 3 mps 712 mmHg 73%
06:00 +10°C° 0 mm 3 mps 712 mmHg 66%
07:00 +12°C° 0 mm 3 mps 711 mmHg 59%
08:00 +14°C° 0 mm 4 mps 712 mmHg 54%
09:00 +17°C° 0 mm 4 mps 712 mmHg 49%
10:00 +20°C° 0 mm 4 mps 712 mmHg 44%
11:00 +21°C° 0 mm 4 mps 712 mmHg 43%
12:00 +21°C° 0 mm 4 mps 712 mmHg 42%
13:00 +22°C° 0 mm 4 mps 712 mmHg 40%
14:00 +22°C° 0 mm 4 mps 712 mmHg 44%
15:00 +21°C° 0 mm 4 mps 712 mmHg 48%
16:00 +21°C° 0 mm 4 mps 712 mmHg 51%
17:00 +19°C° 0 mm 3 mps 712 mmHg 61%
18:00 +17°C° 0 mm 3 mps 712 mmHg 70%
19:00 +14°C° 0 mm 2 mps 712 mmHg 79%
20:00 +13°C° 0 mm 2 mps 712 mmHg 83%
21:00 +12°C° 0 mm 2 mps 712 mmHg 87%
22:00 +10°C° 0 mm 2 mps 712 mmHg 91%
23:00 +10°C° 0 mm 2 mps 711 mmHg 92%

11 May, Tuesday

Time Temperature Precipitation Wind Pressure Humidity
00:00 +9°C° 0 mm 2 mps 711 mmHg 92%
01:00 +9°C° 0 mm 2 mps 711 mmHg 93%
02:00 +9°C° 0 mm 2 mps 711 mmHg 92%
03:00 +9°C° 0 mm 2 mps 710 mmHg 91%
04:00 +9°C° 0 mm 2 mps 710 mmHg 91%
05:00 +11°C° 0 mm 3 mps 710 mmHg 82%
06:00 +13°C° 0 mm 3 mps 710 mmHg 73%
07:00 +16°C° 0 mm 3 mps 710 mmHg 64%
08:00 +18°C° 0 mm 3 mps 710 mmHg 57%
09:00 +21°C° 0 mm 3 mps 710 mmHg 51%
10:00 +24°C° 0 mm 3 mps 710 mmHg 44%
11:00 +25°C° 0 mm 3 mps 710 mmHg 42%
12:00 +25°C° 0 mm 3 mps 710 mmHg 40%
13:00 +26°C° 0 mm 3 mps 710 mmHg 38%
14:00 +26°C° 0 mm 3 mps 710 mmHg 42%
15:00 +25°C° 0 mm 3 mps 709 mmHg 45%
16:00 +25°C° 0 mm 3 mps 709 mmHg 49%
17:00 +21°C° 0 mm 3 mps 709 mmHg 58%
18:00 +19°C° 0 mm 3 mps 708 mmHg 68%
19:00 +16°C° 0 mm 3 mps 708 mmHg 78%
20:00 +15°C° 0 mm 2 mps 708 mmHg 82%
21:00 +14°C° 0 mm 2 mps 707 mmHg 87%
22:00 +13°C° 0 mm 2 mps 707 mmHg 91%
23:00 +13°C° 0 mm 2 mps 707 mmHg 91%

12 May, Wednesday

Time Temperature Precipitation Wind Pressure Humidity
00:00 +12°C° 0 mm 2 mps 707 mmHg 92%
01:00 +12°C° 0 mm 2 mps 706 mmHg 92%
02:00 +12°C° 0 mm 2 mps 706 mmHg 92%
03:00 +12°C° 0 mm 2 mps 706 mmHg 92%
04:00 +10°C° 0 mm 2 mps 706 mmHg 92%
05:00 +13°C° 0 mm 2 mps 706 mmHg 85%
06:00 +15°C° 0 mm 2 mps 705 mmHg 77%
07:00 +17°C° 0 mm 2 mps 705 mmHg 70%
08:00 +19°C° 0 mm 3 mps 705 mmHg 62%
09:00 +21°C° 0 mm 3 mps 705 mmHg 54%
10:00 +24°C° 0 mm 3 mps 705 mmHg 47%
11:00 +23°C° 0 mm 4 mps 704 mmHg 44%
12:00 +25°C° 0 mm 4 mps 704 mmHg 42%
13:00 +25°C° 0 mm 4 mps 704 mmHg 39%
14:00 +23°C° 0 mm 4 mps 703 mmHg 42%
15:00 +22°C° 0 mm 4 mps 703 mmHg 45%
16:00 +21°C° 0 mm 4 mps 702 mmHg 47%
17:00 +19°C° 0 mm 4 mps 702 mmHg 55%
18:00 +17°C° 0 mm 3 mps 701 mmHg 62%
19:00 +14°C° 0 mm 3 mps 701 mmHg 70%
20:00 +14°C° 0 mm 2 mps 701 mmHg 75%
21:00 +13°C° 0 mm 2 mps 700 mmHg 79%
22:00 +12°C° 0 mm 2 mps 700 mmHg 84%
23:00 +12°C° 0 mm 2 mps 700 mmHg 85%
Show more